| time (UTC) | temp F | wind direction | speed MPH | gust MPH | rain 1hr in | rain 24hr in | rain mn in | humidity % | barometer mb |
| 20260509042338 | 62 | 0.0 | 0.0 | 0.00 | 0.00 | 0.00 | 91 | -0.1 | |
| 20260509041838 | 62 | 0.0 | 0.0 | 0.00 | 0.00 | 0.00 | 91 | -0.1 | |
| 20260509041339 | 62 | 0.0 | 0.0 | 0.00 | 0.00 | 0.00 | 91 | -0.1 | |
| 20260509034823 | 62 | 0.0 | 0.0 | 0.00 | 0.00 | 0.00 | 91 | -0.1 | |
| 20260509033839 | 62 | 0.0 | 0.0 | 0.00 | 0.00 | 0.00 | 91 | -0.1 | |
| 20260509031837 | 62 | 0.0 | 0.0 | 0.00 | 0.00 | 0.00 | 90 | -0.1 | |
| 20260509031341 | 62 | 0.0 | 0.0 | 0.00 | 0.00 | 0.00 | 90 | -0.1 | |
| 20260509030331 | 62 | 0.0 | 0.0 | 0.00 | 0.00 | 0.00 | 90 | -0.1 | |
| 20260509025833 | 62 | 0.0 | 0.0 | 0.00 | 0.00 | 0.00 | 90 | -0.1 | |
| 20260509025337 | 62 | 0.0 | 0.0 | 0.00 | 0.00 | 0.00 | 90 | -0.1 | |
| 20260509024335 | 63 | 0.0 | 0.0 | 0.00 | 0.00 | 0.00 | 89 | -0.1 | |
| 20260509023840 | 63 | 0.0 | 0.0 | 0.00 | 0.00 | 0.00 | 89 | -0.1 | |
| 20260509021824 | 63 | 284 | 3.0 | 6.0 | 0.00 | 0.00 | 0.00 | 88 | -0.1 |
| 20260509020841 | 64 | 267 | 3.0 | 7.0 | 0.00 | 0.00 | 0.00 | 87 | -0.1 |
| 20260509015328 | 64 | 268 | 3.0 | 6.0 | 0.00 | 0.00 | 0.00 | 86 | -0.1 |
| 20260509014823 | 65 | 280 | 3.0 | 7.0 | 0.00 | 0.00 | 0.00 | 85 | -0.1 |
| 20260509014329 | 65 | 260 | 3.0 | 7.0 | 0.00 | 0.00 | 0.00 | 84 | -0.1 |
| 20260509013324 | 67 | 290 | 6.0 | 9.0 | 0.00 | 0.00 | 0.00 | 82 | -0.1 |
| 20260509012339 | 68 | 262 | 4.0 | 7.0 | 0.00 | 0.00 | 0.00 | 81 | -0.1 |
| 20260509011326 | 69 | 283 | 4.0 | 7.0 | 0.00 | 0.00 | 0.00 | 80 | -0.1 |
| 20260509010323 | 69 | 266 | 4.0 | 9.0 | 0.00 | 0.00 | 0.00 | 80 | -0.1 |
| 20260509005831 | 69 | 259 | 5.0 | 9.0 | 0.00 | 0.00 | 0.00 | 80 | -0.1 |
| 20260509004330 | 70 | 271 | 4.0 | 10.0 | 0.00 | 0.00 | 0.00 | 79 | -0.1 |
| 20260509003840 | 70 | 279 | 5.0 | 10.0 | 0.00 | 0.00 | 0.00 | 78 | -0.1 |
| 20260509003328 | 70 | 298 | 5.0 | 9.0 | 0.00 | 0.00 | 0.00 | 80 | -0.1 |
| 20260509002322 | 69 | 248 | 4.0 | 11.0 | 0.00 | 0.00 | 0.00 | 80 | -0.1 |
| 20260509001823 | 69 | 296 | 2.0 | 11.0 | 0.00 | 0.00 | 0.00 | 79 | -0.1 |
| 20260509000842 | 70 | 303 | 6.0 | 10.0 | 0.00 | 0.00 | 0.00 | 78 | -0.1 |
| 20260508234332 | 70 | 288 | 5.0 | 12.0 | 0.00 | 0.00 | 0.00 | 77 | -0.1 |
| 20260508232830 | 70 | 295 | 5.0 | 10.0 | 0.00 | 0.00 | 0.00 | 77 | -0.1 |
| 20260508231837 | 70 | 288 | 4.0 | 12.0 | 0.00 | 0.00 | 0.00 | 78 | -0.1 |
| 20260508225335 | 69 | 215 | 6.0 | 12.0 | 0.00 | 0.00 | 0.00 | 79 | -0.1 |
| 20260508224834 | 70 | 303 | 7.0 | 12.0 | 0.00 | 0.00 | 0.00 | 77 | -0.1 |
| 20260508223834 | 71 | 298 | 9.0 | 14.0 | 0.00 | 0.00 | 0.00 | 75 | -0.1 |
| 20260508222833 | 71 | 257 | 5.0 | 11.0 | 0.00 | 0.00 | 0.00 | 77 | -0.1 |
| 20260508220331 | 71 | 234 | 5.0 | 12.0 | 0.00 | 0.00 | 0.00 | 78 | -0.1 |
| 20260508215839 | 71 | 282 | 5.0 | 14.0 | 0.00 | 0.00 | 0.00 | 78 | -0.1 |
| 20260508215326 | 71 | 281 | 10.0 | 13.0 | 0.00 | 0.00 | 0.00 | 75 | -0.1 |
| 20260508214334 | 72 | 304 | 5.0 | 13.0 | 0.00 | 0.00 | 0.00 | 76 | -0.1 |
| 20260508212837 | 72 | 296 | 9.0 | 14.0 | 0.00 | 0.00 | 0.00 | 75 | -0.1 |
| 20260508212327 | 71 | 245 | 5.0 | 12.0 | 0.00 | 0.00 | 0.00 | 77 | -0.1 |
| 20260508211824 | 71 | 261 | 6.0 | 13.0 | 0.00 | 0.00 | 0.00 | 79 | -0.1 |
| 20260508204842 | 72 | 302 | 5.0 | 15.0 | 0.00 | 0.00 | 0.00 | 75 | -0.1 |
| 20260508204326 | 72 | 255 | 6.0 | 15.0 | 0.00 | 0.00 | 0.00 | 75 | -0.1 |
| 20260508203833 | 72 | 268 | 9.0 | 12.0 | 0.00 | 0.00 | 0.00 | 75 | -0.1 |
| 20260508203340 | 72 | 322 | 4.0 | 13.0 | 0.00 | 0.00 | 0.00 | 74 | -0.1 |
| 20260508202826 | 72 | 173 | 7.0 | 13.0 | 0.00 | 0.00 | 0.00 | 76 | -0.1 |
| 20260508202335 | 72 | 263 | 7.0 | 12.0 | 0.00 | 0.00 | 0.00 | 77 | -0.1 |
| 20260508201326 | 72 | 267 | 5.0 | 11.0 | 0.00 | 0.00 | 0.00 | 76 | -0.1 |
| 20260508200324 | 72 | 289 | 5.0 | 10.0 | 0.00 | 0.00 | 0.00 | 76 | -0.1 |
| 20260508195832 | 71 | 252 | 3.0 | 11.0 | 0.00 | 0.00 | 0.00 | 77 | -0.1 |
| 20260508195340 | 71 | 281 | 8.0 | 11.0 | 0.00 | 0.00 | 0.00 | 77 | -0.1 |
| 20260508192828 | 71 | 268 | 5.0 | 9.0 | 0.00 | 0.00 | 0.00 | 78 | -0.1 |
| 20260508192336 | 71 | 276 | 4.0 | 9.0 | 0.00 | 0.00 | 0.00 | 78 | -0.1 |
| 20260508191837 | 71 | 300 | 2.0 | 8.0 | 0.00 | 0.00 | 0.00 | 78 | -0.1 |
| 20260508190833 | 71 | 294 | 4.0 | 12.0 | 0.00 | 0.00 | 0.00 | 79 | -0.1 |
| 20260508185337 | 70 | 251 | 4.0 | 8.0 | 0.00 | 0.00 | 0.00 | 80 | -0.1 |
| 20260508184325 | 70 | 202 | 4.0 | 7.0 | 0.00 | 0.00 | 0.00 | 80 | -0.1 |
| 20260508183333 | 69 | 287 | 3.0 | 10.0 | 0.00 | 0.00 | 0.00 | 81 | -0.1 |
| 20260508182842 | 69 | 287 | 2.0 | 5.0 | 0.00 | 0.00 | 0.00 | 81 | -0.1 |
| 20260508180827 | 66 | 160 | 0.0 | 3.0 | 0.00 | 0.00 | 0.00 | 84 | -0.1 |
| 20260508180335 | 66 | 195 | 1.0 | 4.0 | 0.00 | 0.00 | 0.00 | 84 | -0.1 |
| 20260508175841 | 66 | 51 | 0.0 | 4.0 | 0.00 | 0.00 | 0.00 | 84 | -0.1 |
| 20260508175327 | 65 | 10 | 1.0 | 4.0 | 0.00 | 0.00 | 0.00 | 85 | -0.1 |
| 20260508174823 | 65 | 323 | 1.0 | 5.0 | 0.00 | 0.00 | 0.00 | 85 | -0.1 |
| 20260508174330 | 65 | 18 | 2.0 | 5.0 | 0.00 | 0.00 | 0.00 | 86 | -0.1 |
| 20260508172842 | 64 | 346 | 3.0 | 5.0 | 0.00 | 0.00 | 0.00 | 86 | -0.1 |
| 20260508172325 | 64 | 306 | 1.0 | 3.0 | 0.00 | 0.00 | 0.00 | 87 | -0.1 |
| 20260508170337 | 63 | 76 | 0.0 | 1.0 | 0.00 | 0.00 | 0.00 | 89 | -0.1 |
| 20260508165823 | 63 | 76 | 0.0 | 2.0 | 0.00 | 0.00 | 0.00 | 89 | -0.1 |
| 20260508164337 | 63 | 59 | 2.0 | 4.0 | 0.00 | 0.00 | 0.00 | 90 | -0.1 |
| 20260508163825 | 63 | 0.0 | 0.0 | 0.00 | 0.00 | 0.00 | 90 | -0.1 | |
| 20260508163331 | 62 | 0.0 | 0.0 | 0.00 | 0.00 | 0.00 | 90 | -0.1 | |
| 20260508162838 | 62 | 0.0 | 0.0 | 0.00 | 0.00 | 0.00 | 90 | -0.1 | |
| 20260508161339 | 62 | 0.0 | 0.0 | 0.00 | 0.00 | 0.00 | 91 | -0.1 | |
| 20260508160825 | 62 | 0.0 | 0.0 | 0.00 | 0.00 | 0.00 | 91 | -0.1 | |
| 20260508160335 | 62 | 0.0 | 0.0 | 0.00 | 0.00 | 0.00 | 91 | -0.1 | |
| 20260508155821 | 62 | 0.0 | 0.0 | 0.00 | 0.00 | 0.00 | 91 | -0.1 | |
| 20260508154825 | 62 | 0.0 | 0.0 | 0.00 | 0.00 | 0.00 | 91 | -0.1 | |
| 20260508153825 | 61 | 0.0 | 0.0 | 0.00 | 0.00 | 0.00 | 91 | -0.1 | |
| 20260508153324 | 61 | 0.0 | 0.0 | 0.00 | 0.00 | 0.00 | 92 | -0.1 | |
| 20260508152833 | 61 | 0.0 | 0.0 | 0.00 | 0.00 | 0.00 | 92 | -0.1 | |
| 20260508151835 | 61 | 0.0 | 0.0 | 0.00 | 0.00 | 0.00 | 92 | -0.1 | |
| 20260508151338 | 61 | 0.0 | 0.0 | 0.00 | 0.00 | 0.00 | 92 | -0.1 | |
| 20260508145825 | 61 | 0.0 | 0.0 | 0.00 | 0.00 | 0.00 | 92 | -0.1 | |
| 20260508145334 | 61 | 0.0 | 0.0 | 0.00 | 0.00 | 0.00 | 92 | -0.1 | |
| 20260508144831 | 61 | 0.0 | 0.0 | 0.00 | 0.00 | 0.00 | 92 | -0.1 | |
| 20260508144337 | 61 | 0.0 | 0.0 | 0.00 | 0.00 | 0.00 | 92 | -0.1 | |
| 20260508143823 | 61 | 0.0 | 0.0 | 0.00 | 0.00 | 0.00 | 92 | -0.1 | |
| 20260508143330 | 61 | 0.0 | 0.0 | 0.00 | 0.00 | 0.00 | 92 | -0.1 | |
| 20260508141339 | 60 | 0.0 | 0.0 | 0.00 | 0.00 | 0.00 | 93 | -0.1 | |
| 20260508135335 | 60 | 0.0 | 0.0 | 0.00 | 0.00 | 0.00 | 93 | -0.1 | |
| 20260508134832 | 60 | 0.0 | 0.0 | 0.00 | 0.00 | 0.00 | 93 | -0.1 | |
| 20260508132827 | 60 | 0.0 | 0.0 | 0.00 | 0.00 | 0.00 | 93 | -0.1 | |
| 20260508132333 | 60 | 0.0 | 0.0 | 0.00 | 0.00 | 0.00 | 93 | -0.1 | |
| 20260508131834 | 60 | 0.0 | 0.0 | 0.00 | 0.00 | 0.00 | 93 | -0.1 | |
| 20260508131341 | 60 | 0.0 | 0.0 | 0.00 | 0.00 | 0.00 | 93 | -0.1 | |
| 20260508130827 | 60 | 0.0 | 0.0 | 0.00 | 0.00 | 0.00 | 93 | -0.1 | |
| 20260508125823 | 60 | 0.0 | 0.0 | 0.00 | 0.00 | 0.00 | 93 | -0.1 | |
| 20260508125330 | 60 | 0.0 | 0.0 | 0.00 | 0.00 | 0.00 | 93 | -0.1 | |
| 20260508124337 | 60 | 0.0 | 0.0 | 0.00 | 0.00 | 0.00 | 93 | -0.1 | |
| 20260508123849 | 60 | 0.0 | 0.0 | 0.00 | 0.00 | 0.00 | 93 | -0.1 | |
| 20260508122830 | 60 | 0.0 | 0.0 | 0.00 | 0.00 | 0.00 | 93 | -0.1 | |
| 20260508121840 | 60 | 0.0 | 0.0 | 0.00 | 0.00 | 0.00 | 93 | -0.1 | |
| 20260508121326 | 60 | 0.0 | 0.0 | 0.00 | 0.00 | 0.00 | 93 | -0.1 | |
| 20260508115835 | 60 | 0.0 | 0.0 | 0.00 | 0.00 | 0.00 | 93 | -0.1 | |
| 20260508114841 | 60 | 0.0 | 0.0 | 0.00 | 0.00 | 0.00 | 93 | -0.1 | |
| 20260508114328 | 60 | 0.0 | 0.0 | 0.00 | 0.00 | 0.00 | 93 | -0.1 | |
| 20260508113329 | 60 | 0.0 | 0.0 | 0.00 | 0.00 | 0.00 | 93 | -0.1 | |
| 20260508112330 | 60 | 0.0 | 0.0 | 0.00 | 0.00 | 0.00 | 93 | -0.1 | |
| 20260508111338 | 61 | 0.0 | 0.0 | 0.00 | 0.00 | 0.00 | 93 | -0.1 | |
| 20260508110825 | 60 | 0.0 | 0.0 | 0.00 | 0.00 | 0.00 | 92 | -0.1 | |
| 20260508104827 | 60 | 0.0 | 0.0 | 0.00 | 0.00 | 0.00 | 92 | -0.1 | |
| 20260508103826 | 60 | 0.0 | 0.0 | 0.00 | 0.00 | 0.00 | 92 | -0.1 | |
| 20260508102841 | 60 | 0.0 | 0.0 | 0.00 | 0.00 | 0.00 | 92 | -0.1 | |
| 20260508102327 | 60 | 0.0 | 0.0 | 0.00 | 0.00 | 0.00 | 92 | -0.1 | |
| 20260508100829 | 60 | 0.0 | 0.0 | 0.00 | 0.00 | 0.00 | 92 | -0.1 | |
| 20260508100338 | 60 | 0.0 | 0.0 | 0.00 | 0.00 | 0.00 | 92 | -0.1 | |
| 20260508095824 | 60 | 0.0 | 0.0 | 0.00 | 0.00 | 0.00 | 92 | -0.1 | |
| 20260508094832 | 60 | 0.0 | 0.0 | 0.00 | 0.00 | 0.00 | 92 | -0.1 | |
| 20260508093828 | 61 | 0.0 | 0.0 | 0.00 | 0.00 | 0.00 | 92 | -0.1 | |
| 20260508091324 | 61 | 0.0 | 0.0 | 0.00 | 0.00 | 0.00 | 92 | -0.1 | |
| 20260508090831 | 61 | 0.0 | 0.0 | 0.00 | 0.00 | 0.00 | 92 | -0.1 | |
| 20260508083837 | 61 | 0.0 | 0.0 | 0.00 | 0.00 | 0.00 | 92 | -0.1 | |
| 20260508083337 | 61 | 0.0 | 0.0 | 0.00 | 0.00 | 0.00 | 92 | -0.1 | |
| 20260508082825 | 61 | 0.0 | 0.0 | 0.00 | 0.00 | 0.00 | 92 | -0.1 | |
| 20260508082333 | 61 | 0.0 | 0.0 | 0.00 | 0.00 | 0.00 | 92 | -0.1 | |
| 20260508081835 | 61 | 0.0 | 0.0 | 0.00 | 0.00 | 0.00 | 92 | -0.1 | |
| 20260508081323 | 61 | 0.0 | 0.0 | 0.00 | 0.00 | 0.00 | 92 | -0.1 | |
| 20260508080332 | 61 | 0.0 | 0.0 | 0.00 | 0.00 | 0.00 | 92 | -0.1 | |
| 20260508074337 | 61 | 0.0 | 0.0 | 0.00 | 0.00 | 0.00 | 92 | -0.1 | |
| 20260508073828 | 61 | 0.0 | 0.0 | 0.00 | 0.00 | 0.00 | 92 | -0.1 | |
| 20260508071342 | 61 | 0.0 | 0.0 | 0.00 | 0.00 | 0.00 | 92 | -0.1 | |
| 20260508070340 | 61 | 0.0 | 0.0 | 0.00 | 0.00 | 0.00 | 92 | -0.1 | |
| 20260508063827 | 61 | 0.0 | 0.0 | 0.00 | 0.00 | 0.00 | 92 | -0.1 | |
| 20260508062825 | 61 | 0.0 | 0.0 | 0.00 | 0.00 | 0.00 | 92 | -0.1 | |
| 20260508060830 | 61 | 0.0 | 0.0 | 0.00 | 0.00 | 0.00 | 92 | -0.1 | |
| 20260508060337 | 61 | 0.0 | 0.0 | 0.00 | 0.00 | 0.00 | 92 | -0.1 | |
| 20260508055338 | 61 | 0.0 | 0.0 | 0.00 | 0.00 | 0.00 | 92 | -0.1 | |
| 20260508054831 | 61 | 0.0 | 0.0 | 0.00 | 0.00 | 0.00 | 92 | -0.1 | |
| 20260508054336 | 61 | 0.0 | 0.0 | 0.00 | 0.00 | 0.00 | 92 | -0.1 | |
| 20260508051827 | 61 | 0.0 | 0.0 | 0.00 | 0.00 | 0.00 | 92 | -0.1 | |
| 20260508051332 | 61 | 0.0 | 0.0 | 0.00 | 0.00 | 0.00 | 92 | -0.1 | |
| 20260508050331 | 61 | 0.0 | 0.0 | 0.00 | 0.00 | 0.00 | 92 | -0.1 | |
| 20260508045839 | 61 | 0.0 | 0.0 | 0.00 | 0.00 | 0.00 | 92 | -0.1 | |
| 20260508044820 | 61 | 0.0 | 0.0 | 0.00 | 0.00 | 0.00 | 92 | -0.1 | |
| 20260508043831 | 61 | 0.0 | 0.0 | 0.00 | 0.00 | 0.00 | 92 | -0.1 |